Location: Copper Breaks State Park
(34.1132°N, 99.7492°W)
Time: 21:57:05
(UTC-06:00)

Amateur Radio Satellites - All Passes

Search period start: 05 March 2015 21:27
Search period end: 06 March 2015 21:27
Location: Copper Breaks State Park, 34.1132°N, 99.7492°W

Satellite Date Start Highest point End Downlink Frequencies (MHz)
Time Altitude Azimuth
GONETS M04 05 Mar 21:36:01 21:44:18 53° 91° (E) 21:52:40
AAUSAT CUBESAT 2 05 Mar 21:36:10 21:40:03 40° 262° (W) 21:43:58 437.432
UWE-3 05 Mar 21:38:53 21:43:11 53° 76° (ENE) 21:47:25 435.000/436.395/437.385
COMPASS 1 05 Mar 21:41:49 21:45:30 29° 264° (W) 21:49:07 437.405
PCSat 05 Mar 21:45:25 21:49:01 17° 310° (NW) 21:52:26 145.827
50 SAT 05 Mar 21:46:08 21:48:29 16° 70° (ENE) 21:51:00 437.505
Oscar 11 05 Mar 21:53:35 21:57:48 58° 260° (W) 22:02:03 145.826/435.025
TIGRISAT 05 Mar 22:18:54 22:21:25 16° 93° (E) 22:24:10 435.000
DELFI C3 05 Mar 22:23:32 22:27:06 30° 263° (W) 22:30:39 145.870
DX 1 05 Mar 22:23:45 22:28:04 56° 260° (W) 22:32:24 434.975-435.025
HO-68 05 Mar 22:23:46 22:28:07 16° 270° (W) 22:32:02 435.675
HUMSAT D 05 Mar 22:23:46 22:27:57 74° 77° (ENE) 22:32:06 437.325/437.525
CUBEBUG 2 05 Mar 22:23:58 22:28:08 35° 262° (W) 22:32:09 437.445
VERMONT LUNAR 05 Mar 22:24:25 22:27:34 32° 213° (SSW) 22:30:42 437.305
CINEMA 3 05 Mar 22:27:32 22:31:02 19° 266° (W) 22:34:17 145.822/145.860
ANTELSAT 05 Mar 22:33:38 22:37:10 24° 96° (E) 22:40:48 437.575/2403.000
CUBEBUG 1 05 Mar 22:35:01 22:38:46 28° 72° (ENE) 22:42:36 437.445
NANOSAT C BR1 05 Mar 22:36:11 22:37:53 12° 91° (E) 22:39:49 145.865
AISAT 05 Mar 22:42:53 22:47:23 90° 72° (ENE) 22:51:54 437.250
DANDE 05 Mar 22:43:36 22:45:34 12° 94° (E) 22:47:50 436.750
FUNcube-1 05 Mar 22:46:07 22:49:57 29° 263° (W) 22:53:41 145.935
ZACube-1 05 Mar 22:48:48 22:52:33 27° 264° (W) 22:56:11 437.345
UKube-1 05 Mar 22:49:26 22:53:15 29° 263° (W) 22:57:02 .
VELOX 1 05 Mar 22:50:44 22:55:12 76° 257° (WSW) 22:59:42 145.980
CUSAT 1 05 Mar 22:51:13 22:54:50 17° 96° (E) 22:58:12 437.405
PHONESAT 2.4 05 Mar 22:53:02 22:56:31 44° 211° (SSW) 22:59:57 2401.200-2431.200
SPROUT 05 Mar 22:56:28 22:57:17 11° 67° (ENE) 22:58:23 437.525
BUGSAT 1 05 Mar 23:01:02 23:03:48 18° 93° (E) 23:06:41 437.445
QB50P1 05 Mar 23:08:15 23:12:01 32° 97° (E) 23:15:49 145.935-145.965
RS-15 05 Mar 23:12:22 23:23:17 85° 117° (ESE) 23:34:19 29.354- 29.394
QB50P2 05 Mar 23:13:15 23:17:10 37° 98° (E) 23:21:06 145.880/145.840
UWE-3 05 Mar 23:19:04 23:20:05 10° 270° (W) 23:20:47 435.000/436.395/437.385
ESTCUBE 1 05 Mar 23:19:33 23:24:04 79° 259° (W) 23:28:38 437.505/2401.250
50 SAT 05 Mar 23:19:45 23:23:17 30° 263° (W) 23:26:47 437.505
DUCHIFAT 1 05 Mar 23:25:02 23:29:08 51° 100° (E) 23:33:13 145.980
UNISAT 6 05 Mar 23:30:45 23:35:02 66° 285° (WNW) 23:39:24 437.425
GONETS M04 05 Mar 23:34:14 23:41:34 28° 289° (WNW) 23:48:40
POPSAT HIP 1 05 Mar 23:48:04 23:52:18 79° 283° (WNW) 23:56:29 437.405
POLYITAN 1 05 Mar 23:49:23 23:53:36 74° 284° (WNW) 23:57:47 437.675
TIGRISAT 05 Mar 23:54:23 23:58:20 35° 287° (WNW) 00:02:18 435.000
NANOSAT C BR1 06 Mar 00:10:01 00:14:01 41° 286° (WNW) 00:17:57 145.865
ANTELSAT 06 Mar 00:10:25 00:13:53 23° 289° (WNW) 00:17:19 437.575/2403.000
BEESAT 06 Mar 00:11:08 00:12:09 11° 66° (ENE) 00:13:28 436.000
CUBEBUG 1 06 Mar 00:11:41 00:15:09 21° 266° (W) 00:18:31 437.445
TISAT 1 06 Mar 00:19:42 00:24:00 82° 259° (W) 00:28:17 437.305
DANDE 06 Mar 00:22:08 00:29:00 75° 278° (W) 00:34:08 436.750
SPROUT 06 Mar 00:28:41 00:32:57 57° 260° (W) 00:37:15 437.525
CUSAT 1 06 Mar 00:31:43 00:37:45 46° 279° (W) 00:42:16 437.405
BUGSAT 1 06 Mar 00:35:49 00:39:21 27° 288° (WNW) 00:42:48 437.445
ITUPSAT 1 06 Mar 00:38:04 00:41:37 22° 69° (ENE) 00:45:19 437.325
QB50P1 06 Mar 00:44:53 00:47:42 17° 290° (WNW) 00:50:21 145.935-145.965
JUGNU 06 Mar 00:47:34 00:50:52 15° 169° (S) 00:54:14 437.505
QB50P2 06 Mar 00:50:22 00:52:49 15° 291° (WNW) 00:55:04 145.880/145.840
Oscar 19 06 Mar 00:57:49 01:00:17 14° 91° (E) 01:03:04 437.125/150
DUCHIFAT 1 06 Mar 01:03:19 01:04:35 11° 292° (WNW) 01:05:36 145.980
BEESAT 2 06 Mar 01:07:17 01:09:46 16° 49° (NE) 01:12:22 435.950
SO-50 06 Mar 01:10:31 01:15:04 81° 298° (WNW) 01:19:49 436.795
RS-15 06 Mar 01:28:17 01:37:13 27° 321° (NW) 01:45:57 29.354- 29.394
SWISSCUBE 06 Mar 01:36:46 01:41:32 77° 257° (WSW) 01:46:22 437.505
YUBILEINY 06 Mar 01:44:34 01:47:52 13° 62° (ENE) 01:51:57 435.215
BEESAT 06 Mar 01:44:45 01:49:29 69° 259° (WSW) 01:54:16 436.000
BEESAT 3 06 Mar 02:14:23 02:18:31 82° 244° (WSW) 02:22:34 437.485
ITUPSAT 1 06 Mar 02:15:02 02:19:21 32° 263° (W) 02:23:38 437.325
STARS 06 Mar 02:32:08 02:36:19 42° 74° (ENE) 02:40:31 437.465
KKS-1 06 Mar 02:33:59 02:38:27 74° 76° (ENE) 02:42:56 437.445
Oscar 19 06 Mar 02:35:02 02:40:03 55° 286° (WNW) 02:45:03 437.125/150
JUGNU 06 Mar 02:35:02 02:39:13 20° 179° (S) 02:43:25 437.505
Gurwin Techsat 1B 06 Mar 02:35:24 02:40:09 33° 97° (E) 02:44:56 435.225
ITAMSAT 1 06 Mar 02:41:29 02:46:34 52° 100° (E) 02:51:38 435.822/435.867
SRMSAT 06 Mar 02:44:04 02:47:49 17° 171° (S) 02:51:37 437.500
BEESAT 2 06 Mar 02:44:16 02:48:11 42° 246° (WSW) 02:52:01 435.950
HORYU 2 06 Mar 02:59:33 03:00:54 11° 91° (E) 03:02:31 437.375
AIST 2 06 Mar 03:02:03 03:06:18 81° 243° (WSW) 03:10:28 435.215
AO-7 06 Mar 03:18:58 03:23:31 16° 91° (E) 03:28:38 29.400- 29.500
YUBILEINY 06 Mar 03:37:33 03:46:26 80° 83° (E) 03:55:16 435.215
AUBIESAT-1 06 Mar 03:48:14 03:50:58 25° 68° (ENE) 03:53:53 437.475
M-CUBED/EXP-1 PRIME 06 Mar 03:49:19 03:52:14 30° 68° (ENE) 03:55:18 437.505
RS-15 06 Mar 03:53:12 03:55:26 11° 356° (N) 03:57:32 29.354- 29.394
STARS 06 Mar 04:10:39 04:13:02 14° 268° (W) 04:15:11 437.465
MOZHAYETS 4 06 Mar 04:12:24 04:16:33 36° 73° (ENE) 04:20:46
Gurwin Techsat 1B 06 Mar 04:15:37 04:20:00 26° 291° (WNW) 04:24:14 435.225
ITAMSAT 1 06 Mar 04:22:24 04:25:42 17° 293° (WNW) 04:28:46 435.822/435.867
JUGNU 06 Mar 04:23:55 04:27:35 17° 189° (S) 04:31:14 437.505
SRMSAT 06 Mar 04:32:04 04:36:21 20° 181° (S) 04:40:38 437.500
HORYU 2 06 Mar 04:33:36 04:37:55 51° 286° (WNW) 04:42:15 437.375
JAS-2 06 Mar 04:50:45 04:58:23 66° 100° (E) 05:06:12 435.910
PCSat 06 Mar 04:52:06 04:56:20 23° 53° (NE) 05:00:41 145.827
AO-7 06 Mar 05:09:00 05:17:19 83° 288° (WNW) 05:25:36 29.400- 29.500
AUBIESAT-1 06 Mar 05:24:28 05:26:01 12° 263° (W) 05:27:26 437.475
M-CUBED/EXP-1 PRIME 06 Mar 05:26:56 05:27:26 10° 264° (W) 05:27:44 437.505
PRISM 06 Mar 05:31:00 05:33:40 17° 69° (ENE) 05:36:30 437.425
YUBILEINY 06 Mar 05:36:52 05:42:23 17° 278° (W) 05:47:20 435.215
MOZHAYETS 4 06 Mar 05:50:55 05:53:57 17° 268° (W) 05:56:50
RS-15 06 Mar 06:06:46 06:14:25 20° 32° (NNE) 06:22:44 29.354- 29.394
SRMSAT 06 Mar 06:21:25 06:24:53 16° 191° (S) 06:28:17 437.500
CUBESAT XI-V 06 Mar 06:21:36 06:26:16 69° 76° (ENE) 06:30:58 437.345
STRAND 1 06 Mar 06:22:06 06:26:55 43° 73° (ENE) 06:31:48 437.568
PCSat 06 Mar 06:34:51 06:39:58 42° 249° (WSW) 06:45:00 145.827
JAS-2 06 Mar 06:36:57 06:42:55 24° 294° (WNW) 06:48:43 435.910
Cubesat XI-IV 06 Mar 06:37:42 06:42:54 50° 99° (E) 06:48:06 437.490
CUTE-I 06 Mar 06:45:27 06:50:45 60° 101° (E) 06:56:01 437.470
ISS 06 Mar 07:02:49 07:05:45 34° 132° (SE) 07:08:44 145.825
AO-7 06 Mar 07:04:21 07:09:05 16° 304° (NW) 07:13:21 29.400- 29.500
PRISM 06 Mar 07:05:16 07:08:59 31° 263° (W) 07:12:40 437.425
AIST 1 06 Mar 07:12:46 07:17:07 88° 98° (E) 07:21:32
O/OREOS (USA 219) 06 Mar 07:40:29 07:41:23 11° 100° (E) 07:42:36 437.305
GONETS M04 06 Mar 07:51:58 07:58:00 21° 67° (ENE) 08:04:29
STRAND 1 06 Mar 08:02:44 08:06:21 18° 267° (W) 08:09:47 437.568
HO-68 06 Mar 08:06:28 08:10:30 16° 90° (E) 08:14:59 435.675
RS-15 06 Mar 08:18:03 08:29:32 70° 58° (ENE) 08:41:33 29.354- 29.394
Cubesat XI-IV 06 Mar 08:19:04 08:22:39 18° 293° (WNW) 08:26:01 437.490
CUTE-I 06 Mar 08:27:18 08:30:23 15° 294° (WNW) 08:33:12 437.470
SEEDS 06 Mar 08:28:33 08:30:03 12° 91° (E) 08:31:49 437.485
CANX-2 06 Mar 08:36:43 08:39:55 21° 94° (E) 08:43:13 2200.000
ISS 06 Mar 08:39:49 08:42:16 19° 327° (NNW) 08:44:41 145.825
GOMX 1 06 Mar 08:53:44 08:57:31 31° 96° (E) 09:01:14 467.674
CUTE 1.7 + AOD 2 06 Mar 08:54:15 08:58:02 31° 96° (E) 09:01:51 437.475
BRITE-PL 06 Mar 09:08:57 09:13:20 83° 102° (ESE) 09:17:30 437.365/2234.400
DOVE 4 06 Mar 09:09:38 09:13:22 32° 97° (E) 09:17:06 437.250
O/OREOS (USA 219) 06 Mar 09:15:54 09:20:22 56° 292° (WNW) 09:24:52 437.305
AAUSAT CUBESAT 2 06 Mar 09:22:58 09:26:54 39° 98° (E) 09:30:53 437.432
COMPASS 1 06 Mar 09:28:37 09:32:46 55° 100° (E) 09:36:55 437.405
ANTELSAT 06 Mar 09:30:36 09:32:56 15° 69° (ENE) 09:35:26 437.575/2403.000
UWE-3 06 Mar 09:34:17 09:36:12 13° 92° (E) 09:38:22 435.000/436.395/437.385
Oscar 11 06 Mar 09:44:53 09:48:46 32° 97° (E) 09:52:41 145.826/435.025
SO-50 06 Mar 09:45:45 09:50:14 34° 54° (NE) 09:54:44 436.795
GONETS M04 06 Mar 09:47:02 09:55:45 71° 267° (W) 10:04:29
HO-68 06 Mar 09:51:47 09:58:59 75° 287° (WNW) 10:06:09 435.675
QB50P1 06 Mar 09:58:37 10:01:13 16° 70° (ENE) 10:03:57 145.935-145.965
SEEDS 06 Mar 10:02:06 10:06:10 44° 285° (WNW) 10:10:12 437.485
QB50P2 06 Mar 10:03:32 10:06:29 19° 70° (ENE) 10:09:34 145.880/145.840
DELFI C3 06 Mar 10:06:41 10:10:38 46° 99° (E) 10:14:35 145.870
CANX-2 06 Mar 10:12:16 10:15:51 26° 288° (WNW) 10:19:22 2200.000
HUMSAT D 06 Mar 10:13:09 10:15:32 15° 92° (E) 10:18:07 437.325/437.525
DUCHIFAT 1 06 Mar 10:14:28 10:17:53 24° 71° (ENE) 10:21:23 145.980
DX 1 06 Mar 10:16:12 10:20:04 32° 97° (E) 10:23:59 434.975-435.025
CUBEBUG 2 06 Mar 10:18:31 10:22:37 60° 100° (E) 10:26:47 437.445
CINEMA 3 06 Mar 10:24:59 10:29:04 56° 284° (WNW) 10:33:09 145.822/145.860
UNISAT 6 06 Mar 10:26:04 10:30:26 67° 76° (ENE) 10:34:43 437.425
CUTE 1.7 + AOD 2 06 Mar 10:30:47 10:33:46 18° 290° (WNW) 10:36:37 437.475
RS-15 06 Mar 10:31:44 10:41:20 29° 254° (WSW) 10:50:43 29.354- 29.394
GOMX 1 06 Mar 10:32:46 10:35:27 16° 291° (WNW) 10:37:57 467.674
POPSAT HIP 1 06 Mar 10:37:11 10:41:17 46° 74° (ENE) 10:45:25 437.405
FUNcube-1 06 Mar 10:37:41 10:41:49 66° 101° (E) 10:46:00 145.935
AISAT 06 Mar 10:38:25 10:41:52 23° 95° (E) 10:45:25 437.250
POLYITAN 1 06 Mar 10:38:44 10:42:52 49° 75° (ENE) 10:47:02 437.675
UKube-1 06 Mar 10:40:13 10:44:31 60° 101° (E) 10:48:47 .
ZACube-1 06 Mar 10:40:27 10:44:36 73° 101° (E) 10:48:49 437.345
VELOX 1 06 Mar 10:45:46 10:49:29 27° 96° (E) 10:53:16 145.980
DOVE 4 06 Mar 10:48:21 10:50:57 16° 291° (WNW) 10:53:22 437.250
TIGRISAT 06 Mar 10:49:08 10:53:31 65° 259° (W) 10:57:48 435.000
NANOSAT C BR1 06 Mar 10:58:31 11:02:48 86° 77° (ENE) 11:07:05 145.865
AAUSAT CUBESAT 2 06 Mar 10:59:58 11:02:16 14° 291° (WNW) 11:04:22 437.432
50 SAT 06 Mar 11:01:29 11:05:14 41° 99° (E) 11:09:01 437.505
ANTELSAT 06 Mar 11:05:19 11:09:28 40° 262° (W) 11:13:32 437.575/2403.000
COMPASS 1 06 Mar 11:07:15 11:08:04 10° 292° (WNW) 11:08:36 437.405
DANDE 06 Mar 11:09:01 11:11:31 41° 80° (E) 11:14:14 436.750
UWE-3 06 Mar 11:09:06 11:12:59 38° 286° (WNW) 11:16:52 435.000/436.395/437.385
CUSAT 1 06 Mar 11:14:27 11:17:05 86° 263° (W) 11:20:06 437.405
ESTCUBE 1 06 Mar 11:16:35 11:20:30 29° 96° (E) 11:24:29 437.505/2401.250
BUGSAT 1 06 Mar 11:21:20 11:25:35 68° 259° (W) 11:29:51 437.445
Oscar 11 06 Mar 11:21:45 11:24:45 18° 290° (WNW) 11:27:36 145.826/435.025
SO-50 06 Mar 11:26:38 11:30:40 25° 249° (WSW) 11:34:32 436.795
QB50P1 06 Mar 11:32:55 11:36:52 35° 263° (W) 11:40:46 145.935-145.965
QB50P2 06 Mar 11:38:26 11:42:14 30° 263° (W) 11:45:58 145.880/145.840
HO-68 06 Mar 11:43:07 11:45:43 12° 302° (WNW) 11:47:49 435.675
DELFI C3 06 Mar 11:43:58 11:45:29 12° 291° (WNW) 11:46:46 145.870
HUMSAT D 06 Mar 11:47:44 11:51:27 32° 287° (WNW) 11:55:08 437.325/437.525
DUCHIFAT 1 06 Mar 11:50:15 11:53:41 23° 265° (W) 11:57:02 145.980
DX 1 06 Mar 11:53:04 11:56:08 18° 291° (WNW) 11:59:03 434.975-435.025
CUBEBUG 1 06 Mar 12:03:18 12:07:42 86° 283° (WNW) 12:12:03 437.445
TISAT 1 06 Mar 12:09:11 12:12:17 20° 94° (E) 12:15:28 437.305
Oscar 19 06 Mar 12:11:28 12:14:11 15° 67° (ENE) 12:17:09 437.125/150
AISAT 06 Mar 12:14:46 12:18:28 26° 289° (WNW) 12:22:04 437.250
POPSAT HIP 1 06 Mar 12:15:48 12:17:29 12° 269° (W) 12:18:55 437.405
POLYITAN 1 06 Mar 12:17:51 12:19:10 11° 270° (W) 12:20:09 437.675
SPROUT 06 Mar 12:19:31 12:23:20 31° 97° (E) 12:27:10 437.525
UKube-1 06 Mar 12:19:36 12:20:14 10° 294° (WNW) 12:20:35 .
VELOX 1 06 Mar 12:22:29 12:25:57 22° 290° (WNW) 12:29:19 145.980
50 SAT 06 Mar 12:38:18 12:39:55 12° 291° (WNW) 12:41:19 437.505
ESTCUBE 1 06 Mar 12:53:43 12:57:15 22° 290° (WNW) 13:00:40 437.505/2401.250
ISS 06 Mar 13:34:38 13:35:41 11° 26° (NNE) 13:36:49 145.825
SWISSCUBE 06 Mar 13:41:14 13:45:40 37° 98° (E) 13:50:06 437.505
TISAT 1 06 Mar 13:44:33 13:48:06 26° 288° (WNW) 13:51:32 437.305
Oscar 19 06 Mar 13:48:06 13:53:09 56° 260° (W) 13:58:11 437.125/150
BEESAT 06 Mar 13:49:00 13:53:31 41° 99° (E) 13:58:02 436.000
Gurwin Techsat 1B 06 Mar 13:52:49 13:57:37 37° 72° (ENE) 14:02:30 435.225
ITAMSAT 1 06 Mar 13:55:41 14:00:45 54° 74° (ENE) 14:05:52 435.822/435.867
SPROUT 06 Mar 13:56:17 13:59:14 18° 290° (WNW) 14:02:02 437.525
AO-7 06 Mar 14:14:39 14:19:47 19° 58° (ENE) 14:25:17 29.400- 29.500
ITUPSAT 1 06 Mar 14:18:51 14:23:43 87° 104° (ESE) 14:28:31 437.325
STARS 06 Mar 14:28:51 14:29:19 10° 90° (E) 14:30:06 437.465
KKS-1 06 Mar 14:30:00 14:33:05 19° 94° (E) 14:36:17 437.445
YUBILEINY 06 Mar 14:41:17 14:46:03 17° 82° (E) 14:51:26 435.215
JAS-2 06 Mar 15:02:11 15:05:18 16° 62° (ENE) 15:08:54 435.910
VERMONT LUNAR 06 Mar 15:06:15 15:09:21 32° 147° (SSE) 15:12:31 437.305
ISS 06 Mar 15:09:20 15:12:34 89° 21° (NNE) 15:15:49 145.825
SWISSCUBE 06 Mar 15:19:48 15:23:18 20° 291° (WNW) 15:26:38 437.505
BEESAT 06 Mar 15:27:50 15:31:05 18° 292° (WNW) 15:34:09 436.000
HORYU 2 06 Mar 15:28:00 15:32:26 90° 253° (WSW) 15:36:53 437.375
Gurwin Techsat 1B 06 Mar 15:33:33 15:37:44 23° 266° (W) 15:41:47 435.225
ITAMSAT 1 06 Mar 15:37:37 15:40:39 15° 269° (W) 15:43:24 435.822/435.867
PHONESAT 2.4 06 Mar 15:40:55 15:44:03 28° 146° (SSE) 15:47:13 2401.200-2431.200
STARS 06 Mar 16:01:55 16:06:12 54° 285° (WNW) 16:10:27 437.465
AO-7 06 Mar 16:03:20 16:11:43 86° 254° (WSW) 16:20:06 29.400- 29.500
BEESAT 3 06 Mar 16:04:31 16:08:24 45° 115° (ESE) 16:12:22 437.485
KKS-1 06 Mar 16:05:52 16:09:49 31° 288° (WNW) 16:13:40 437.445
MOZHAYETS 4 06 Mar 16:13:20 16:14:55 12° 90° (E) 16:16:48
YUBILEINY 06 Mar 16:33:14 16:41:59 81° 277° (W) 16:50:50 435.215
BEESAT 2 06 Mar 16:34:42 16:38:48 90° 292° (WNW) 16:42:59 435.950
VERMONT LUNAR 06 Mar 16:43:46 16:47:10 50° 341° (NNW) 16:50:35 437.305
JAS-2 06 Mar 16:44:16 16:49:42 64° 260° (W) 16:55:49 435.910
AIST 2 06 Mar 16:56:28 17:00:34 53° 115° (ESE) 17:04:45 435.215
AUBIESAT-1 06 Mar 17:05:54 17:10:15 49° 104° (ESE) 17:14:51 437.475
M-CUBED/EXP-1 PRIME 06 Mar 17:07:38 17:12:04 58° 105° (ESE) 17:16:44 437.505
PHONESAT 2.4 06 Mar 17:18:47 17:22:21 57° 340° (NNW) 17:25:58 2401.200-2431.200
AIST 1 06 Mar 17:25:22 17:27:53 15° 73° (ENE) 17:30:34
BEESAT 3 06 Mar 17:44:22 17:46:46 15° 311° (NW) 17:49:04 437.485
MOZHAYETS 4 06 Mar 17:48:00 17:52:32 53° 285° (WNW) 17:57:03
O/OREOS (USA 219) 06 Mar 17:52:19 17:54:18 13° 57° (ENE) 17:56:30 437.305
Cubesat XI-IV 06 Mar 17:55:56 18:01:11 58° 74° (ENE) 18:06:29 437.490
AO-7 06 Mar 18:01:39 18:05:44 13° 271° (W) 18:09:06 29.400- 29.500
CUTE-I 06 Mar 18:03:30 18:08:49 68° 75° (ENE) 18:14:12 437.470
VERMONT LUNAR 06 Mar 18:22:27 18:25:29 27° 358° (N) 18:28:32 437.305
CUBESAT XI-V 06 Mar 18:22:58 18:26:39 23° 94° (E) 18:30:25 437.345
YUBILEINY 06 Mar 18:36:29 18:40:32 13° 298° (WNW) 18:43:52 435.215
AIST 2 06 Mar 18:37:12 18:39:33 14° 313° (NW) 18:41:46 435.215
STRAND 1 06 Mar 18:37:20 18:40:54 20° 93° (E) 18:44:39 437.568
AUBIESAT-1 06 Mar 18:42:10 18:44:49 15° 295° (WNW) 18:47:23 437.475
M-CUBED/EXP-1 PRIME 06 Mar 18:44:29 18:46:38 13° 296° (WNW) 18:48:37 437.505
PRISM 06 Mar 18:51:14 18:55:19 46° 100° (E) 18:59:23 437.425
PHONESAT 2.4 06 Mar 18:58:00 19:01:13 29° 357° (N) 19:04:27 2401.200-2431.200
AIST 1 06 Mar 19:01:43 19:05:45 35° 268° (W) 19:09:41
PCSat 06 Mar 19:29:26 19:34:29 43° 111° (ESE) 19:39:37 145.827
O/OREOS (USA 219) 06 Mar 19:29:40 19:34:10 54° 254° (WSW) 19:38:35 437.305
Cubesat XI-IV 06 Mar 19:38:45 19:41:45 14° 269° (W) 19:44:26 437.490
CUTE 1.7 + AOD 2 06 Mar 19:45:09 19:47:21 14° 69° (ENE) 19:49:45 437.475
CUTE-I 06 Mar 19:47:19 19:49:29 12° 271° (W) 19:51:16 437.470
GOMX 1 06 Mar 19:57:34 20:02:03 29° 72° (ENE) 20:06:26 467.674
CUBESAT XI-V 06 Mar 20:00:02 20:04:07 28° 288° (WNW) 20:08:03 437.345
VERMONT LUNAR 06 Mar 20:00:32 20:03:52 40° 15° (NNE) 20:07:10 437.305
DOVE 4 06 Mar 20:11:22 20:15:31 27° 72° (ENE) 20:19:36 437.250
AAUSAT CUBESAT 2 06 Mar 20:11:34 20:14:12 17° 70° (ENE) 20:16:59 437.432
BRITE-PL 06 Mar 20:14:34 20:20:09 66° 76° (ENE) 20:25:29 437.365/2234.400
STRAND 1 06 Mar 20:15:30 20:20:18 40° 288° (WNW) 20:25:02 437.568
HO-68 06 Mar 20:15:51 20:22:46 57° 71° (ENE) 20:29:46 435.675
COMPASS 1 06 Mar 20:17:07 20:20:22 23° 72° (ENE) 20:23:43 437.405
PRISM 06 Mar 20:28:35 20:30:27 12° 292° (WNW) 20:32:06 437.425
PHONESAT 2.4 06 Mar 20:36:43 20:40:10 39° 14° (NNE) 20:43:37 2401.200-2431.200
Oscar 11 06 Mar 20:37:15 20:39:53 17° 70° (ENE) 20:42:41 145.826/435.025
GONETS M04 06 Mar 20:48:36 20:55:18 27° 86° (E) 21:02:20
SEEDS 06 Mar 20:50:17 20:54:26 76° 78° (ENE) 20:58:37 437.485
DELFI C3 06 Mar 20:52:10 20:54:49 18° 71° (ENE) 20:57:38 145.870
CANX-2 06 Mar 21:00:54 21:05:02 58° 260° (W) 21:09:12 2200.000
DX 1 06 Mar 21:09:04 21:12:02 19° 69° (ENE) 21:15:10 434.975-435.025
CUBEBUG 2 06 Mar 21:13:24 21:17:21 32° 74° (ENE) 21:21:16 437.445
PCSat 06 Mar 21:13:47 21:18:07 23° 307° (NW) 21:22:20 145.827
CUTE 1.7 + AOD 2 06 Mar 21:19:04 21:23:01 38° 263° (W) 21:26:55 437.475
